Location: Barcelona
(41.3829°N, 2.1774°E)
Time: 22:50:08
(UTC+00:00)

ISS - Visible Passes

Search period start: 24 April 2024 00:00
Search period end: 04 May 2024 00:00
Orbit: 411 x 417 km, 51.6° (Epoch: 24 April)

Date Brightness Start Highest point End Pass type
(mag) Time Alt. Az. Time Alt. Az. Time Alt. Az.
24 Apr -3.9 03:29:52 39° SW 03:30:59 88° NW 03:34:19 10° NE visible
25 Apr -2.8 02:42:34 42° E 02:42:34 42° E 02:45:07 10° ENE visible
25 Apr -2.2 04:15:52 10° W 04:18:44 26° NNW 04:21:35 10° NE visible
26 Apr -0.8 01:55:10 13° E 01:55:10 13° E 01:55:40 10° ENE visible
26 Apr -2.7 03:28:00 25° WNW 03:29:21 37° NNW 03:32:29 10° NE visible
27 Apr -3.1 02:40:28 51° N 02:40:28 51° N 02:43:17 10° NE visible
27 Apr -1.4 04:14:53 10° WNW 04:17:12 17° NNW 04:19:31 10° NNE visible
28 Apr -1.1 01:52:49 20° ENE 01:52:49 20° ENE 01:53:55 10° ENE visible
28 Apr -1.7 03:25:38 14° WNW 03:27:35 21° NNW 03:30:15 10° NE visible
29 Apr -2.2 02:37:52 28° NNW 02:37:58 28° NNW 02:40:55 10° NE visible
29 Apr -1.1 04:13:33 10° NW 04:15:27 14° N 04:17:21 10° NNE visible
30 Apr -1.3 01:50:00 23° NNE 01:50:00 23° NNE 01:51:30 10° NE visible
30 Apr -1.1 03:23:32 10° NW 03:25:38 16° N 03:27:45 10° NNE visible
01 May -1.5 02:34:51 16° NW 02:35:47 18° NNW 02:38:11 10° NNE visible
01 May -1.0 04:11:28 10° NNW 04:13:24 14° N 04:15:21 10° NE visible
02 May -1.2 01:46:47 20° N 01:46:47 20° N 01:48:37 10° NE visible
02 May -0.9 03:21:35 10° NW 03:23:26 14° N 03:25:17 10° NE visible
03 May -0.4 00:58:38 12° NE 00:58:38 12° NE 00:58:59 10° NE visible
03 May -0.9 02:31:25 10° NW 02:33:22 15° N 02:35:19 10° NNE visible
03 May -1.0 04:08:36 10° NNW 04:11:00 18° NNE 04:13:24 10° ENE visible
